カタログに戻る

NOVA 1

運用中ナビゲーションPO
NORAD 12458·PAYLOAD·🇺🇸 United States

打ち上げ May 15, 1981 から Vandenberg Space Force Base

Loading…

次のパス (今後24時間)

TLE

最新Source: Space-Track

元期: Sep 14, 2026, 11:37 UTC

1 12458U 81044A   26257.48448081  .00000050  00000-0  96224-4 0  9998
2 12458  89.8384  87.2937 0016037  66.6486 320.5984 13.23309351188335

AllMySatでNOVA 1をリアルタイム追跡

Download on the App Store